Weather History for Wiscasset, ME

Change the Weather History Date:

Sunday, February 3, 2013

  Actual Average Record
Temperature  
Mean Temperature 24 °F -  
Max Temperature 28 °F 30 °F 50 °F (1999)
Min Temperature 21 °F 10 °F -4 °F (2002)
Degree Days  
Heating Degree Days 40    
Moisture  
Dew Point 14 °F    
Average Humidity 65    
Maximum Humidity 86    
Minimum Humidity 49    
Precipitation  
Precipitation 0.00 in - - ()
Sea Level Pressure  
Sea Level Pressure 29.90 in    
Wind  
Wind Speed 2 mph (NNE)    
Max Wind Speed 6 mph    
Max Gust Speed -    
Visibility 9 miles    
Events Snow    
Averages and records for this station are not official NWS values.
T = Trace of Precipitation, MM = Missing Value Source: NWS Daily Summary

Daily Weather History Graph

Daily Weather History Graph

Search for Another Location

Airport:

Trip Planner

Search our weather history database for the weather conditions in past years. The results will help you decide how hot, cold, wet, or windy it might be!

Date:

Astronomy

Feb. 03, 2013 Rise Set
Actual Time 6:53 AM EST 4:52 PM EST
Civil Twilight 6:23 AM EST 5:22 PM EST
Nautical Twilight 5:48 AM EST 5:57 PM EST
Astronomical Twilight 5:15 AM EST 6:31 PM EST
Moon 12:17 AM EST (2/3) 10:26 AM EST (2/3)
Length of Visible Light 10h 59m
Length of Day
9h 58m
Waning Gibbous, 49% of the Moon is Illuminated
Feb 3
Waning Gibbous
Feb 10
New
Feb 17
First Quarter
Feb 25
Full
Mar 4
Last Quarter

Hourly Weather History & Observations

Time (EST) Temp. Windchill Dew Point Humidity Pressure Visibility Wind Dir Wind Speed Gust Speed Precip Events Conditions
12:53 AM 24.1 °F - 14.0 °F 65% 30.06 in 10.0 mi Calm Calm - N/A   Overcast
1:53 AM 24.1 °F - 14.0 °F 65% 30.06 in 10.0 mi Calm Calm - N/A   Overcast
2:53 AM 23.0 °F - 16.0 °F 74% 30.04 in 5.0 mi Calm Calm - 0.00 in Snow Light Snow
3:53 AM 21.9 °F - 17.1 °F 82% 30.03 in 3.0 mi Calm Calm - 0.00 in Snow Light Snow
4:53 AM 21.9 °F 17.2 °F 17.1 °F 82% 30.02 in 6.0 mi NE 3.5 mph - 0.00 in Snow Light Snow
5:53 AM 21.9 °F - 17.1 °F 82% 30.01 in 10.0 mi Calm Calm - 0.00 in   Overcast
6:53 AM 21.9 °F - 17.1 °F 82% 30.01 in 6.0 mi Calm Calm - N/A   Haze
7:35 AM 21.2 °F - 17.6 °F 86% 30.00 in 3.0 mi Calm Calm - 0.00 in Snow Light Snow
7:53 AM 21.9 °F - 17.1 °F 82% 30.01 in 3.0 mi Calm Calm - 0.00 in Snow Light Snow
8:53 AM 21.9 °F 15.7 °F 16.0 °F 78% 30.00 in 10.0 mi Variable 4.6 mph - 0.00 in   Scattered Clouds
9:53 AM 24.1 °F 18.2 °F 16.0 °F 71% 29.99 in 10.0 mi Variable 4.6 mph - N/A   Overcast
10:53 AM 25.0 °F 18.1 °F 15.1 °F 66% 29.97 in 10.0 mi NNE 5.8 mph - N/A   Overcast
11:53 AM 27.0 °F 21.6 °F 14.0 °F 58% 29.91 in 10.0 mi Variable 4.6 mph - N/A   Overcast
12:53 PM 27.0 °F 20.5 °F 14.0 °F 58% 29.87 in 10.0 mi Variable 5.8 mph - N/A   Overcast
1:53 PM 28.0 °F 21.7 °F 12.9 °F 53% 29.84 in 10.0 mi Variable 5.8 mph - N/A   Overcast
2:53 PM 28.0 °F 22.8 °F 10.9 °F 49% 29.83 in 10.0 mi Variable 4.6 mph - N/A   Overcast
3:53 PM 28.0 °F 24.2 °F 10.9 °F 49% 29.82 in 10.0 mi Variable 3.5 mph - N/A   Overcast
4:53 PM 27.0 °F 20.5 °F 10.9 °F 51% 29.81 in 10.0 mi Variable 5.8 mph - N/A   Overcast
5:53 PM 27.0 °F - 10.9 °F 51% 29.78 in 10.0 mi Calm Calm - N/A   Overcast
6:53 PM 26.1 °F 19.4 °F 10.9 °F 53% 29.77 in 10.0 mi North 5.8 mph - N/A   Overcast
7:53 PM 26.1 °F - 12.0 °F 55% 29.78 in 10.0 mi Calm Calm - N/A   Overcast
8:53 PM 26.1 °F 21.9 °F 12.0 °F 55% 29.75 in 10.0 mi Variable 3.5 mph - N/A   Overcast
9:53 PM 25.0 °F 20.7 °F 12.0 °F 58% 29.73 in 10.0 mi Variable 3.5 mph - N/A   Overcast
10:53 PM 24.1 °F - 10.9 °F 57% 29.71 in 10.0 mi Calm Calm - N/A   Overcast
11:53 PM 24.1 °F - 10.9 °F 57% 29.70 in 10.0 mi Calm Calm - N/A   Overcast